www.pogodaiklimat.ru

Погода и климат >> Архив погоды >> Россия >> Магаданская область >> Коркодон


ПОГОДА в Коркодоне

  • Прогноз погоды в Коркодоне
  • Монитор погоды в Коркодоне

АРХИВ ПОГОДЫ в Коркодоне

Время (UTC), дата Ветер
(напр.,м/с)
 
Видим.   Явления Облачность Т
(С)
Тd
(С)
f
(%)
Тe
(С)
Тes
(С)
Комфортность P
(гПа)
Po
(гПа)
Тmin
(С)
Tmax
(С)
R
(мм)
R24
(мм)
S
(см)
18 16.07 СВ 1 50 км 9/0
[Ci fib]
+4.6 +4.2 97 +3 +4 1009.1 997.0
21 16.07 В 2 50 км 9/3 1000 м
[Sc Ci fib]
+13.8 +9.4 75 +13 +16 1007.7 996.0 +3.8
00 17.07 ЮВ 1 50 км 9/3 1000 м
[Sc Ac trans Ci fib]
+17.2 +10.1 63 +18 +23 1006.4 994.8
03 17.07 ЮЗ 1 50 км 9/3 1000 м
[Cu med, cong Ac trans Ci fib]
+20.6 +4.6 35 +22 +27 комфорт 1004.5 993.1
06 17.07 В 3 50 км 9/6 1000 м
[Cu med, cong Ci fib]
+20.9 +7.8 43 +23 +24 комфорт 1003.4 992.0
09 17.07 В 1 50 км 9/8 1000 м
[Cb cap Ci fib]
+18.2 +10.6 61 +20 +20 1003.4 991.9 +22.5
12 17.07 СВ 1 50 км 9/8 1000 м
[Sc Ci fib]
+11.5 +9.1 85 +11 +11 1003.8 992.1
15 17.07 В 1 50 км 9/9 1000 м
[Sc]
+9.1 +8.5 96 +8 +8 1004.0 992.1
18 17.07 В 1 50 км 9/9 1000 м
[Sc]
+10.6 +9.5 93 +10 +10 1003.8 992.0
21 17.07 В 3 50 км 9/5 1000 м
[Sc Ci fib]
+13.7 +9.7 77 +13 +14 1003.6 991.9 +8.3
00 18.07 В 2 50 км 9/3 1000 м
[Cu med, cong Ci fib]
+19.8 +10.5 55 +22 +28 комфорт 1002.1 990.7
03 18.07 ЮВ 1 50 км 10/3 1000 м
[Cb cap Ac und]
+20.5 +9.4 49 +23 +26 комфорт 1000.6 989.2
06 18.07 В 1 50 км 10/6 1000 м
[Cb cap Ac und]
+19.1 +13.1 68 +21 +22 комфорт 999.9 988.5
09 18.07 З 3 50 км 10/10 1000 м
[Cb cap]
+17.1 +12.2 73 +17 +17 1000.8 989.3 +21.0
12 18.07 В 1 10 км ливневой дождь 10/10 300 м
[Cb cap]
+12.7 +11.9 95 +13 +13 1003.4 991.7
15 18.07 З 1 10 км ливневой дождь 10/10 300 м
[Cb cap]
+9.7 +9.1 96 +9 +9 1005.9 994.0
18 18.07 З 1 50 км {ливн. осадки} 10/10 300 м
[Cb cap]
+9.8 +9.2 96 +9 +9 1007.0 995.1
21 18.07 З 2 20 км слаб. морось 10/10 200 м
[St]
+9.2 +8.3 94 +7 +7 1008.9 996.9 +9.1 10
00 19.07 З 2 20 км слаб. морось 10/10 200 м
[St]
+10.1 +9.0 93 +8 +8 1010.0 998.1
03 19.07 З 1 4000 м морось 10/10 200 м
[St]
+9.9 +8.8 93 +9 +9 1011.1 999.1
06 19.07 ЮЗ 1 4000 м морось 10/10 200 м
[St]
+9.6 +8.7 94 +9 +9 1011.9 999.9
09 19.07 З 1 4000 м ливневой дождь {морось} 10/10 300 м
[Cb cap]
+8.9 +8.3 96 +8 +8 1012.5 1000.5 +10.3 14
12 19.07 штиль 0 4000 м ливневой дождь {морось} 10/10 300 м
[Cb cap]
+7.9 +7.3 96 +7 +7 1013.4 1001.3
15 19.07 В 1 4000 м ливневой дождь 10/10 300 м
[Cb cap]
+7.5 +6.7 95 +6 +6 1013.8 1001.7
18 19.07 ЮЗ 1 4000 м слаб. ливневой дождь 10/10 300 м
[Cb cap]
+6.7 +5.8 94 +6 +6 1013.8 1001.7
21 19.07 С 1 20 км слаб. ливневой дождь 10/10 300 м
[Cb cap]
+6.0 +4.3 89 +5 +5 1015.3 1003.1 +6.0 10
00 20.07 С 1 50 км {ливн. осадки} 10/10 300 м
[Cb cap]
+7.4 +4.5 82 +7 +7 1015.5 1003.3 +6.0
03 20.07 С 1 50 км 10/10 600 м
[Cb cap]
+10.1 +5.7 74 +10 +10 1014.8 1002.8
06 20.07 С 2 50 км {ливн. осадки} 10/10 600 м
[Cb cap]
+10.2 +6.0 75 +9 +9 1014.7 1002.7
09 20.07 С 2 20 км слаб. ливневой дождь 10/10 600 м
[Cb cap]
+8.6 +6.2 85 +7 +7 1015.0 1002.9 +10.3 1
12 20.07 штиль 0 20 км слаб. ливневой дождь 10/10 600 м
[Cb cap]
+7.2 +5.8 91 +6 +6 1014.9 1002.8
15 20.07 З 1 20 км слаб. ливневой дождь 10/10 300 м
[Cb cap]
+7.0 +6.1 94 +6 +6 1014.6 1002.5
18 20.07 З 1 50 км {ливн. осадки} 10/10 300 м
[Cb cap]
+7.0 +6.4 96 +6 +6 1013.9 1001.8
21 20.07 ЮЗ 2 50 км 10/10 300 м
[Cb cap]
+8.8 +7.0 88 +7 +7 1013.3 1001.3 +6.6 0.8
00 21.07 З 2 50 км 9/9 600 м
[Cb cap]
+10.7 +7.6 81 +9 +10 1011.7 999.8
03 21.07 З 2 50 км {ливн. осадки} 9/8 600 м
[Cb cap Ci fib]
+13.0 +5.9 62 +12 +14 1009.7 997.9
06 21.07 З 2 50 км {ливн. осадки} 9/8 600 м
[Cb cap Ci fib]
+14.7 +6.0 56 +15 +15 1007.7 996.0
09 21.07 СЗ 1 50 км 9/5 1000 м
[Cb cap Ci fib]
+13.5 +6.6 63 +14 +14 1007.1 995.3 +15.9 0.0
12 21.07 СЗ 1 50 км 9/8 1000 м
[Cb cap Ci fib]
+8.7 +7.7 93 +8 +8 1006.5 994.5
15 21.07 СВ 1 50 км 9/9 1000 м
[Cb cap]
+7.7 +7.1 96 +7 +7 1006.2 994.2
18 21.07 Ю 1 20 км слаб. ливневой дождь 10/10 1000 м
[Cb cap]
+9.2 +7.2 87 +9 +9 1007.0 995.1
21 21.07 С 3 50 км {ливн. осадки} 10/10 600 м
[Cb cap]
+7.3 +3.7 78 +5 +5 1009.2 997.2 +7.3 1
00 22.07 З 3 50 км {ливн. осадки} 10/10 600 м
[Cb cap]
+7.8 +3.3 73 +5 +5 1010.9 998.8 +6.7
03 22.07 СЗ 4-10
{12}
50 км {ливн. осадки} 9/8 1000 м
[Cb cap Ci fib]
+9.2 +2.5 63 +7 +8 1011.2 999.2
06 22.07 С 6-12
{12}
20 км слаб. ливневой дождь 9/8 1000 м
[Cb cap Ci fib]
+6.9 +1.8 70 +3 +3 1012.8 1000.7
09 22.07 З 2
{12}
50 км {ливн. осадки} 9/9 1000 м
[Cb cap]
+6.4 +0.9 68 +4 +4 1014.0 1001.8 +11.2 0.4
12 22.07 С 1 50 км {ливн. осадки} 10/10 600 м
[Cb cap]
+4.0 +0.5 78 +3 +3 1015.2 1002.9
15 22.07 СЗ 2 50 км 10/10 600 м
[Cb cap]
+3.9 +1.6 85 +1 +1 1016.0 1003.7
18 22.07 С 1 50 км 10/10 600 м
[Cb cap]
+4.1 +1.6 84 +3 +3 1016.6 1004.3
21 22.07 СЗ 1 50 км 10/10 300 м
[Cb cap]
+5.5 +3.2 85 +4 +4 1017.4 1005.2 +3.7
00 23.07 СЗ 1 50 км 9/5 1000 м
[Cb cap Ci fib]
+9.5 +1.6 58 +9 +14 1016.9 1004.9
03 23.07 З 2
{10}
50 км 9/5 1000 м
[Cb cap Ac trans Ci fib]
+9.7 +1.1 55 +9 +12 1015.9 1003.9
06 23.07 В 1
{11}
50 км 9/6 1000 м
[Cb cap Ac trans Ci fib]
+10.8 +1.1 51 +11 +12 1015.2 1003.2
09 23.07 З 2 50 км 9/4 1000 м
[Cb cap Ac trans Ci fib]
+9.7 +2.5 61 +8 +9 1015.4 1003.4 +11.4
12 23.07 В 1 50 км 9/5 1000 м
[Cb cap Ci fib]
+3.2 +2.3 94 +2 +2 1015.7 1003.4

 

Местоположение метеостанции Коркодон (Магаданская область, Россия): широта 64.75 долгота 153.90 высота над уровнем моря 99 м.

В архиве по умолчанию представлена погода в Коркодоне за последнюю неделю. Архивные данные за месяц целиком и за предыдущие месяцы, начиная с января 2011 года, Вы можете получить, выбрав интересующий диапазон дат из раскрывающегося списка и нажав кнопку "Ввод!".


*Определитесь, кто Вы:
робот инопланетянин человек

Внимание! Время в таблицах - всемирное. Для получения местного времени необходимо прибавить поправку, которая равна 11 ч.

Смотрите также архив погоды в соседних городах и на ближайших метеорологических станциях:

Погода в Балыгычане (Магаданская область, Россия) (94 км)
Погода в Зырянке (Якутия, Россия) (177 км)
Погода в Сеймчане (Магаданская область, Россия) (217 км)
Погода в Омсукчане (Магаданская область, Россия) (265 км)
Погода в Среднекане (Магаданская область, Россия) (268 км)
Погода в Совхозе Эльген (Магаданская область, Россия) (271 км)
Погода в Лабазной (Магаданская область, Россия) (276 км)
Погода в Среднеколымске (Якутия, Россия) (300 км)
Погода в Омолоне (Чукотка, Россия) (315 км)
Погода в Ягодной (Магаданская область, Россия) (327 км)

Пояснения к столбцам:

Ветер - указаны скорость ветра в м/с - средняя за 10 мин, порывы в срок и между сроками (в фигурных скобках) и направление, откуда дует ветер: С - северный, СВ - северо-восточный, В - восточный, ЮВ - юго-восточный, Ю - южный, ЮЗ - юго-западный, З - западный, СЗ - северо-западный.
Видимость - горизонтальная дальность видимости в метрах или километрах. При видимости от 1 до 10 км при отсутствии осадков обычно наблюдается дымка, при ухудшении видимости до 1 км и менее - туман. В сухую погоду видимость может ухудшаться дымом, пылью или мглою.
Явления - указаны атмосферные явления, наблюдавшиеся в срок или в последний час перед сроком; фигурными скобками обозначены явления, наблюдавшиеся между сроками (за 1-3 часа до срока); квадратными скобками обозначены град или гололедные отложения с указанием их диаметра в мм.
Облачность - указаны через наклонную черту общая и нижняя облачность в баллах и высота нижней границы облаков в метрах; квадратными скобками обозначены формы облаков: Ci - перистые, Cs - перисто-слоистые, Cc - перисто-кучевые, Ac - высококучевые, As - высокослоистые, Sc - слоисто-кучевые, Ns - слоисто-дождевые, Cu - кучевые, Cb - кучево-дождевые. Подробнее классификацию облаков см. в Атласе облаков (PDF).
T - Температура воздуха - температура, измеренная на высоте 2 м над землей.
Td - Температура точки росы - температура, при понижении до которой содержащийся в воздухе водяной пар достигнет насыщения.
f - Относительная влажность воздуха - влажноcть воздуха, измеренная на высоте 2 м над землей.
Te - Эффективная температура - температура, которую ощущает одетый по сезону человек в тени. Характеристика душности погоды. При расчете учитывается влияние влажности воздуха и скорости ветра на теплоощущения человека.
Tes - Эффективная температура на солнце - температура, которую ощущает человек, с поправкой на солнечный нагрев. Характеристика знойности погоды. Зависит от высоты солнца над горизонтом, облачности и скорости ветра. Ночью, в пасмурную погоду, а также при ветре 12 м/с и более поправка равна нулю.
P - Атмосферное давление - приведенное к уровню моря атмосферное давление.
Po - Атмосферное давление - измеренное на уровне метеостанции атмосферное давление.
Tmin - Минимальная температура - минимум температуры воздуха на высоте 2 м над землей.
Tmax - Максимальная температура - максимум температуры воздуха на высоте 2 м над землей.
R - Количество осадков - Количество выпавших осадков за период времени, мм. При наведении курсора мыши на число - период времени, за который выпало указанное количество осадков.
R24 - Количество осадков - Количество выпавших осадков за 24 часа, мм.
S - Снежный покров - Высота снежного покрова, см. При наведении курсора мыши на число - состояние снежного покрова и степень покрытия местности в баллах.